Weather observations for the past three days for
Woodward, West Woodward Airport
Imperial (Metric)
Date Time (cdt) Wind (mph) Vis. (mi.) Weather Sky Cond. Temperature (ºF) Relative Humidity Wind Chill (°F) Heat Index (°F) Pressure Precipitation (in)
Air Dwpt 6 hour altimeter (in) sea level (mb) 1 hr 3 hr 6 hr
Max. Min.
21 07:50 N 7 0.75 Fog/Mist OVC003 64.4 62.6 94% 30.18 0.0
21 07:30 N 8 0.75 Fog/Mist OVC003 64.4 62.6 94% 30.18 0.0
21 07:10 N 8 3.00 Fog/Mist BKN003 64.4 62.6 94% 30.18 0.0
21 06:50 N 9 5.00 Fog/Mist SCT003 62.6 62.6 100% 30.16 0.0
21 06:30 N 7 7.00 Fair CLR 62.6 62.6 100% 30.16 0.0
21 06:10 N 7 10.00 Fair CLR 62.6 62.6 100% 30.16 0.0
21 05:50 N 5 10.00 Fair CLR 62.6 62.6 100% 30.15 0.0
21 05:30 N 7 10.00 Partly Cloudy SCT020 SCT026 64.4 62.6 94% 30.15 0.0
21 05:10 N 5 10.00 Mostly Cloudy BKN020 BKN029 64.4 62.6 94% 30.15 0.0
21 04:50 N 5 10.00 Mostly Cloudy BKN022 64.4 62.6 94% 30.13 0.0
21 04:30 N 6 10.00 Partly Cloudy SCT024 64.4 62.6 94% 30.13 0.0
21 04:10 N 5 10.00 Partly Cloudy SCT024 64.4 62.6 94% 30.13 0.0
21 03:50 N 3 10.00 Fair CLR 64.4 62.6 94% 30.13 0.0
21 03:30 N 5 10.00 Fair CLR 66.2 62.6 88% 30.12 0.0
21 03:10 N 6 10.00 Fair CLR 66.2 64.4 94% 30.12 0.0
21 02:50 NE 3 10.00 Partly Cloudy SCT009 66.2 62.6 88% 30.12 0.0
21 02:30 N 5 10.00 Partly Cloudy SCT009 66.2 62.6 88% 30.14 0.0
21 02:10 N 3 10.00 Partly Cloudy SCT007 66.2 64.4 94% 30.14 0.0
21 01:50 N 6 10.00 Fair CLR 68 64.4 88% 30.12 0.0
21 01:30 N 7 10.00 Fair CLR 68 64.4 88% 30.12 0.0
21 01:10 N 5 10.00 Fair CLR 68 64.4 88% 30.12 0.0
21 00:50 N 5 10.00 Fair CLR 68 64.4 88% 30.12 0.0
21 00:30 N 6 10.00 Fair CLR 69.8 64.4 83% 30.12 0.0
21 00:10 N 8 10.00 Fair CLR 69.8 64.4 83% 30.12 0.0
20 23:50 N 6 10.00 Fair CLR 69.8 64.4 83% 30.13 0.0
20 23:30 NW 3 10.00 Partly Cloudy SCT055 69.8 64.4 83% 30.13 0.0
20 23:10 Calm 10.00 Partly Cloudy SCT055 73.4 64.4 74% 30.13 0.0
20 22:50 Calm 10.00 Fair CLR 71.6 64.4 78% 30.13 0.0
20 22:30 Calm 10.00 Fair CLR 77 64.4 65% 79 30.12 0.0
20 22:10 Calm 10.00 Fair CLR 77 64.4 65% 79 30.12 0.0
20 21:50 E 3 10.00 Fair CLR 77 64.4 65% 79 30.12 0.0
20 21:30 E 3 10.00 Fair CLR 77 64.4 65% 79 30.1 0.0
20 21:10 NE 5 10.00 Fair CLR 77 66.2 69% 79 30.1 0.0
20 20:50 NE 5 10.00 Fair CLR 77 64.4 65% 79 30.08 0.0
20 20:30 NE 5 10.00 Fair CLR 78.8 64.4 61% 81 30.08 0.0
20 20:10 NE 7 10.00 Fair CLR 80.6 64.4 58% 82 30.08 0.0
20 19:50 NE 7 10.00 Fair CLR 82.4 64.4 55% 84 30.08 0.0
20 19:30 NE 9 10.00 Fair CLR 82.4 64.4 55% 84 30.07 0.0
20 19:10 N 8 10.00 Partly Cloudy SCT049 84.2 62.6 48% 85 30.07 0.0
20 18:50 NE 9 10.00 Partly Cloudy SCT049 86 62.6 46% 87 30.06 0.0
20 18:30 N 6 10.00 Partly Cloudy SCT049 86 62.6 46% 87 30.05 0.0
20 18:10 N 8 10.00 Fair CLR 86 62.6 46% 87 30.05 0.0
20 17:50 NE 6 10.00 Fair CLR 86 60.8 43% 86 30.07 0.0
20 17:30 N 9 10.00 Fair CLR 86 60.8 43% 86 30.07 0.0
20 17:10 N 8 10.00 Fair CLR 87.8 60.8 40% 88 30.07 0.0
20 16:50 NW 6 10.00 Partly Cloudy SCT050 87.8 60.8 40% 88 30.08 0.0
20 16:30 N 9 10.00 Partly Cloudy SCT050 87.8 62.6 43% 88 30.08 0.0
20 16:10 N 6 10.00 Partly Cloudy SCT055 86 62.6 46% 87 30.08 0.0
20 15:50 N 5 10.00 Partly Cloudy SCT055 87.8 60.8 40% 88 30.08 0.0
20 15:30 NW 3 10.00 Partly Cloudy SCT055 86 60.8 43% 86 30.08 0.0
20 15:10 NE 3 10.00 Fair CLR 86 60.8 43% 86 30.09 0.0
20 14:50 NW 7 10.00 Fair CLR 86 60.8 43% 86 30.09 0.0
20 14:30 Calm 10.00 Fair CLR 86 62.6 46% 87 30.09 0.0
20 14:10 W 7 10.00 Fair CLR 86 62.6 46% 87 30.1 0.0
20 13:50 W 8 10.00 Fair CLR 86 60.8 43% 86 30.1 0.0
20 13:30 W 5 10.00 Fair CLR 84.2 62.6 48% 85 30.1 0.0
20 13:10 W 5 10.00 Fair CLR 82.4 62.6 51% 83 30.1 0.0
20 12:50 SW 9 10.00 Fair CLR 82.4 62.6 51% 83 30.11 0.0
20 12:30 NW 9 10.00 Fair CLR 82.4 62.6 51% 83 30.11 0.0
20 12:10 W 8 10.00 Fair CLR 82.4 60.8 48% 83 30.11 0.0
20 11:50 SW 9 10.00 Fair CLR 82.4 60.8 48% 83 30.11 0.0
20 11:30 NW 6 10.00 Fair CLR 80.6 60.8 51% 81 30.12 0.0
20 11:10 W 9 10.00 Fair CLR 80.6 60.8 51% 81 30.12 0.0
20 10:50 NW 7 10.00 Fair CLR 80.6 62.6 54% 82 30.12 0.0
20 10:30 NW 5 10.00 Fair CLR 80.6 60.8 51% 81 30.12 0.0
20 10:10 NW 6 10.00 Fair CLR 78.8 60.8 54% 80 30.12 0.0
20 09:50 NW 8 10.00 Partly Cloudy SCT120 77 60.8 57% 79 30.11 0.0
20 09:30 NW 8 10.00 Mostly Cloudy BKN120 77 62.6 61% 79 30.12 0.0
20 09:10 NW 6 10.00 Mostly Cloudy BKN120 75.2 60.8 61% 77 30.12 0.0
20 08:50 Calm 10.00 Fair CLR 73.4 62.6 69% 30.11 0.0
20 08:30 Calm 10.00 Fair CLR 71.6 62.6 73% 30.1 0.0
20 08:10 W 6 10.00 Fair CLR 71.6 62.6 73% 30.1 0.0
20 07:50 SW 8 10.00 Fair CLR 69.8 62.6 78% 30.09 0.0
20 07:30 SW 7 10.00 Fair CLR 68 60.8 78% 30.09 0.0
20 07:10 SW 8 10.00 Fair CLR 68 60.8 78% 30.09 0.0
20 06:50 S 7 10.00 Fair CLR 68 59 73% 30.09 0.0
20 06:30 SW 7 10.00 Fair CLR 68 59 73% 30.09 0.0
20 06:10 S 8 10.00 Fair CLR 69.8 59 69% 30.09 0.0
20 05:50 S 9 10.00 Fair CLR 69.8 59 69% 30.1 0.0
20 05:30 S 6 10.00 Fair CLR 69.8 59 69% 30.1 0.0
20 05:10 S 6 G 17 10.00 Fair CLR 71.6 57.2 61% 30.09 0.0
20 04:50 SW 8 10.00 Partly Cloudy SCT065 71.6 59 65% 30.09 0.0
20 04:30 S 8 10.00 Fair CLR 71.6 57.2 61% 30.09 0.0
20 04:10 SE 9 10.00 Thunderstorm in Vicinity CLR 71.6 55.4 57% 30.09 0.0
20 03:50 SE 9 10.00 Partly Cloudy SCT070 SCT100 71.6 55.4 57% 30.09 0.0
20 03:30 E 8 10.00 Overcast SCT070 OVC100 71.6 55.4 57% 30.1 0.0
20 03:10 N 5 10.00 Mostly Cloudy BKN100 BKN120 71.6 55.4 57% 30.11 0.0
20 02:50 S 7 10.00 Partly Cloudy SCT100 SCT120 71.6 55.4 57% 30.08 0.0
20 02:30 S 10 10.00 Fair CLR 71.6 55.4 57% 30.07 0.0
20 02:10 SE 8 10.00 Fair CLR 73.4 55.4 53% 30.08 0.0
20 01:50 S 10 10.00 Fair CLR 73.4 55.4 53% 30.08 0.0
20 01:30 S 12 10.00 Fair CLR 73.4 57.2 57% 30.08 0.0
20 01:10 SE 12 10.00 Fair CLR 73.4 57.2 57% 30.09 0.0
20 00:50 S 13 G 16 10.00 Fair CLR 73.4 57.2 57% 30.08 0.0
20 00:30 S 10 10.00 Fair CLR 73.4 59 61% 30.09 0.0
20 00:10 S 13 G 20 10.00 Fair CLR 73.4 59 61% 30.08 0.0
19 23:50 SE 13 10.00 Fair CLR 73.4 59 61% 30.08 0.0
19 23:30 SE 8 10.00 Fair CLR 73.4 59 61% 30.09 0.0
19 23:10 SE 9 10.00 Fair CLR 73.4 59 61% 30.09 0.0
19 22:50 SE 8 10.00 Fair CLR 73.4 59 61% 30.09 0.0
19 22:30 SE 9 10.00 Fair CLR 75.2 59 57% 78 30.09 0.0
19 22:10 SE 10 10.00 Fair CLR 77 57.2 51% 79 30.09 0.0
19 21:50 SE 10 10.00 Fair CLR 77 57.2 51% 79 30.1 0.0
19 21:30 E 12 10.00 Fair CLR 77 57.2 51% 79 30.1 0.0
19 21:10 E 13 10.00 Fair CLR 78.8 59 51% 80 30.09 0.0
19 20:50 E 12 10.00 Fair CLR 78.8 59 51% 80 30.09 0.0
19 20:30 E 10 10.00 Fair CLR 80.6 60.8 51% 81 30.09 0.0
19 20:10 E 9 10.00 Fair CLR 80.6 60.8 51% 81 30.09 0.0
19 19:50 E 9 10.00 Fair CLR 82.4 60.8 48% 83 30.08 0.0
19 19:30 E 9 10.00 Fair CLR 84.2 60.8 45% 84 30.06 0.0
19 19:10 SE 9 10.00 Fair CLR 86 60.8 43% 86 30.07 0.0
19 18:50 SE 12 10.00 Fair CLR 86 60.8 43% 86 30.07 0.0
19 18:30 SE 10 10.00 Fair CLR 86 60.8 43% 86 30.07 0.0
19 18:10 SE 12 G 17 10.00 Fair CLR 87.8 60.8 40% 88 30.06 0.0
19 17:50 SE 12 10.00 Fair CLR 87.8 60.8 40% 88 30.07 0.0
19 17:30 SE 13 G 17 10.00 Partly Cloudy SCT085 87.8 60.8 40% 88 30.07 0.0
19 17:10 SE 13 10.00 Fair CLR 87.8 60.8 40% 88 30.09 0.0
19 16:50 SE 10 10.00 Fair CLR 87.8 60.8 40% 88 30.09 0.0
19 16:30 SE 13 G 16 10.00 Fair CLR 87.8 60.8 40% 88 30.09 0.0
19 16:10 S 9 10.00 Fair CLR 87.8 60.8 40% 88 30.1 0.0
19 15:50 SE 10 G 17 10.00 Fair CLR 86 59 40% 85 30.11 0.0
19 15:30 S 13 G 16 10.00 Fair CLR 86 59 40% 85 30.12 0.0
19 15:10 S 10 G 18 10.00 Fair CLR 86 59 40% 85 30.12 0.0
19 14:50 S 13 G 20 10.00 Fair CLR 86 59 40% 85 30.13 0.0
19 14:30 S 8 G 20 10.00 Fair CLR 86 59 40% 85 30.14 0.0
19 14:10 SE 14 10.00 Fair CLR 86 59 40% 85 30.15 0.0
19 13:50 SE 12 10.00 Fair CLR 84.2 59 43% 84 30.16 0.0
19 13:30 SE 15 G 20 10.00 Fair CLR 84.2 59 43% 84 30.16 0.0
19 13:10 S 9 10.00 Fair CLR 82.4 59 45% 82 30.17 0.0
19 12:50 SE 13 10.00 Fair CLR 82.4 59 45% 82 30.18 0.0
19 12:30 SE 8 G 16 10.00 Fair CLR 80.6 59 48% 81 30.18 0.0
19 12:10 SE 12 10.00 Fair CLR 80.6 59 48% 81 30.18 0.0
19 11:50 SE 9 10.00 Fair CLR 80.6 59 48% 81 30.19 0.0
19 11:30 S 14 10.00 Fair CLR 80.6 59 48% 81 30.2 0.0
19 11:10 S 9 G 17 10.00 Fair CLR 78.8 59 51% 80 30.2 0.0
19 10:50 S 13 G 17 10.00 Fair CLR 78.8 59 51% 80 30.21 0.0
19 10:30 S 10 10.00 Fair CLR 77 59 54% 79 30.21 0.0
19 10:10 S 10 10.00 Fair CLR 77 59 54% 79 30.21 0.0
19 09:50 S 12 10.00 Fair CLR 75.2 57.2 54% 78 30.21 0.0
19 09:30 S 14 G 17 10.00 Fair CLR 73.4 55.4 53% 30.21 0.0
19 09:10 S 12 10.00 Fair CLR 73.4 55.4 53% 30.21 0.0
19 08:50 S 13 10.00 Partly Cloudy SCT100 71.6 55.4 57% 30.22 0.0
19 08:30 S 12 10.00 Mostly Cloudy BKN100 71.6 55.4 57% 30.22 0.0
19 08:10 S 7 10.00 Fair CLR 69.8 55.4 60% 30.22 0.0
19 07:50 SW 3 10.00 Fair CLR 68 59 73% 30.22 0.0
19 07:30 SW 3 10.00 Fair CLR 66.2 57.2 73% 30.21 0.0
19 07:10 S 5 10.00 Partly Cloudy SCT120 64.4 57.2 78% 30.2 0.0
19 06:50 S 5 10.00 Mostly Cloudy BKN110 62.6 57.2 83% 30.2 0.0
19 06:30 S 5 10.00 Mostly Cloudy SCT090 BKN110 64.4 55.4 73% 30.2 0.0
19 06:10 S 6 10.00 Partly Cloudy SCT090 64.4 55.4 73% 30.19 0.0
19 05:50 S 6 10.00 Partly Cloudy SCT090 64.4 55.4 73% 30.2 0.0
19 05:30 S 6 10.00 Mostly Cloudy SCT080 BKN100 66.2 55.4 68% 30.19 0.0
19 05:10 S 7 10.00 Mostly Cloudy BKN080 68 57.2 69% 30.19 0.0
19 04:50 SE 5 10.00 Mostly Cloudy SCT080 BKN100 66.2 57.2 73% 30.19 0.0
19 04:30 SE 3 10.00 Partly Cloudy SCT080 68 57.2 69% 30.19 0.0
19 04:10 SE 7 10.00 Partly Cloudy SCT080 SCT110 68 55.4 64% 30.18 0.0
19 03:50 SE 8 10.00 Mostly Cloudy BKN080 BKN110 68 55.4 64% 30.17 0.0
19 03:30 SE 10 10.00 Mostly Cloudy BKN080 BKN100 68 57.2 69% 30.18 0.0
19 03:10 SE 8 10.00 Mostly Cloudy BKN075 BKN100 69.8 55.4 60% 30.18 0.0
19 02:50 SE 9 10.00 Mostly Cloudy BKN075 69.8 57.2 64% 30.19 0.0
19 02:30 SE 10 10.00 Mostly Cloudy BKN085 69.8 57.2 64% 30.19 0.0
19 02:10 SE 8 10.00 Mostly Cloudy SCT075 BKN085 69.8 57.2 64% 30.19 0.0
19 01:50 SE 7 10.00 Partly Cloudy SCT075 SCT085 69.8 57.2 64% 30.2 0.0
19 01:30 SE 9 10.00 Partly Cloudy SCT080 69.8 55.4 60% 30.2 0.0
19 01:10 SE 9 10.00 Fair CLR 71.6 57.2 61% 30.2 0.0
19 00:50 SE 9 10.00 Fair CLR 71.6 59 65% 30.2 0.0
19 00:30 E 9 10.00 Fair CLR 71.6 57.2 61% 30.21 0.0
19 00:10 SE 9 10.00 Fair CLR 71.6 59 65% 30.21 0.0
18 23:50 E 7 10.00 Fair CLR 71.6 60.8 69% 30.21 0.0
18 23:30 E 6 10.00 Fair CLR 71.6 60.8 69% 30.21 0.0
18 23:10 E 6 10.00 Fair CLR 73.4 60.8 65% 30.21 0.0
18 22:50 E 7 10.00 Fair CLR 73.4 60.8 65% 30.21 0.0
18 22:30 E 6 10.00 Fair CLR 73.4 60.8 65% 30.21 0.0
18 22:10 E 6 10.00 Fair CLR 73.4 60.8 65% 30.19 0.0
18 21:50 SE 6 10.00 Fair CLR 73.4 60.8 65% 30.19 0.0
18 21:30 E 6 10.00 Fair CLR 77 60.8 57% 79 30.18 0.0
18 21:10 E 6 10.00 Fair CLR 77 60.8 57% 79 30.17 0.0
18 20:50 E 6 10.00 Fair CLR 77 60.8 57% 79 30.17 0.0
18 20:30 E 5 10.00 Fair CLR 78.8 60.8 54% 80 30.17 0.0
18 20:10 E 5 10.00 Fair CLR 80.6 60.8 51% 81 30.16 0.0
18 19:50 E 7 10.00 Fair CLR 82.4 60.8 48% 83 30.16 0.0
18 19:30 E 7 10.00 Fair CLR 82.4 59 45% 82 30.16 0.0
18 19:10 E 8 10.00 Fair CLR 82.4 59 45% 82 30.16 0.0
18 18:50 E 8 10.00 Fair CLR 84.2 59 43% 84 30.16 0.0
18 18:30 SE 9 10.00 Fair CLR 84.2 60.8 45% 84 30.16 0.0
18 18:10 E 8 10.00 Fair CLR 86 60.8 43% 86 30.16 0.0
18 17:50 E 12 10.00 Fair CLR 86 60.8 43% 86 30.17 0.0
18 17:30 E 9 10.00 Fair CLR 86 59 40% 85 30.18 0.0
18 17:10 E 9 10.00 Fair CLR 86 60.8 43% 86 30.18 0.0
18 16:50 E 13 10.00 Partly Cloudy SCT050 84.2 60.8 45% 84 30.19 0.0
18 16:30 E 5 10.00 Partly Cloudy SCT060 82.4 59 45% 82 30.19 0.0
18 16:10 E 6 10.00 Partly Cloudy SCT060 84.2 60.8 45% 84 30.19 0.0
18 15:50 E 7 10.00 Partly Cloudy SCT060 82.4 60.8 48% 83 30.2 0.0
18 15:30 Calm 10.00 Partly Cloudy SCT060 84.2 60.8 45% 84 30.21 0.0
18 15:10 E 7 10.00 Partly Cloudy SCT050 SCT055 SCT120 82.4 60.8 48% 83 30.21 0.0
18 14:50 SE 5 10.00 Mostly Cloudy BKN050 BKN120 84.2 60.8 45% 84 30.23 0.0
18 14:30 E 8 10.00 Partly Cloudy SCT055 82.4 60.8 48% 83 30.23 0.0
18 14:10 SE 8 10.00 Fair CLR 84.2 60.8 45% 84 30.23 0.0
18 13:50 E 8 10.00 Partly Cloudy SCT045 82.4 62.6 51% 83 30.23 0.0
18 13:30 E 9 10.00 Partly Cloudy SCT043 82.4 62.6 51% 83 30.24 0.0
18 13:10 SE 12 G 16 10.00 Fair CLR 82.4 62.6 51% 83 30.24 0.0
18 12:50 E 6 10.00 Fair CLR 82.4 62.6 51% 83 30.25 0.0
18 12:30 E 8 10.00 Partly Cloudy SCT032 SCT041 80.6 62.6 54% 82 30.26 0.0
18 12:10 E 10 10.00 Partly Cloudy SCT032 SCT041 78.8 62.6 58% 80 30.26 0.0
18 11:50 E 7 10.00 Partly Cloudy SCT029 SCT100 78.8 64.4 61% 81 30.26 0.0
18 11:30 E 6 10.00 Partly Cloudy SCT100 78.8 64.4 61% 81 30.26 0.0
18 11:10 E 6 10.00 Fair CLR 78.8 62.6 58% 80 30.27 0.0
18 10:50 SE 7 10.00 Fair CLR 77 64.4 65% 79 30.27 0.0
18 10:30 SE 7 10.00 Fair CLR 77 64.4 65% 79 30.27 0.0
18 10:10 SE 7 10.00 Fair CLR 75.2 64.4 69% 77 30.27 0.0
18 09:50 S 7 10.00 Fair CLR 73.4 64.4 74% 30.27 0.0
18 09:30 SE 7 10.00 Fair CLR 73.4 64.4 74% 30.26 0.0
18 09:10 E 8 10.00 Fair CLR 73.4 64.4 74% 30.26 0.0
18 08:50 E 9 10.00 Fair CLR 71.6 62.6 73% 30.25 0.0
18 08:30 E 8 10.00 Fair CLR 69.8 62.6 78% 30.25 0.0
Date Time (cdt) Wind (mph) Vis. (mi.) Weather Sky Cond. Air Dwpt Max. Min. Relative Humidity Wind Chill (°F) Heat Index (°F) altimeter (in) sea level (mb) 1 hr 3 hr 6 hr
6 hour
Temperature (ºF) Pressure Precipitation (in)